Regional Weather Roundup
Issued by NWS

Home | Current Version | Previous Version | Text Only | Print | Product List | Glossary Off
Versions: 1 2 3 4 5 6 7 8 9 10 11 12 13 14 15 16 17 18 19 20 21 22 23 24 25 26 27 28 29 30 31 32 33 34 35 36 37 38 39 40 41 42 43 44 45 46 47 48 49 50

000
ASUS43 KLSX 220507
RWRMO

WEATHER SUMMARY FOR MISSOURI
NATIONAL WEATHER SERVICE SPRINGFIELD MO
1200 AM CDT MON MAY 22 2017

NOTE: "FAIR" INDICATES FEW OR NO CLOUDS BELOW 12,000 FEET WITH NO
       SIGNIFICANT WEATHER AND/OR OBSTRUCTIONS TO VISIBILITY.
       CURRENT SKY AND/OR WEATHER CONDITIONS ARE NOT AVAILABLE FOR
       CHILLICOTHE AND FARMINGTON.

MOZ001>031-035>038-043-044-053-054-220600-
...NORTHERN AND WESTERN MISSOURI...

CITY           SKY/WX    TMP DP  RH WIND       PRES   REMARKS
KANSAS CTY INT CLEAR     58  43  57 SE5       30.12S
KANSAS C DTWN  CLEAR     57  50  77 CALM      30.11F
LEE`S SUMMIT   CLEAR     58  46  64 CALM      30.13S
ST JOSEPH      CLEAR     52  50  93 CALM      30.11F
CHILLICOTHE      N/A     50  48  93 CALM      30.13F
KIRKSVILLE     CLEAR     45  44  97 W3        30.12F

$$
MOZ066>068-077>081-088>096-101>105-220600-
...SOUTHWEST MISSOURI...

CITY           SKY/WX    TMP DP  RH WIND       PRES   REMARKS
SPRINGFIELD    CLOUDY    56  51  84 CALM      30.16S
JOPLIN         CLOUDY    58  53  84 S3        30.16S
BRANSON        CLOUDY    55  48  76 CALM      30.18S

$$
MOZ032>034-039>042-045>050-055>058-069>072-220600-
...CENTRAL MISSOURI...

CITY           SKY/WX    TMP DP  RH WIND       PRES   REMARKS
COLUMBIA       CLEAR     57  46  66 W3        30.14S
JEFFERSON CITY CLEAR     55  48  77 CALM      30.15R
ROLLA          CLOUDY    52  46  80 S3        30.15R
SEDALIA        CLEAR     54  50  86 S5        30.15S
WHITEMAN AFB   CLEAR     51  51 100 CALM      30.13S
WARRENSBURG    CLEAR     52  50  93 S3        30.13S
OSAGE BEACH    CLOUDY    50  48  93 CALM      30.17R

$$
MOZ051-052-059>065-220600-
...EAST CENTRAL MISSOURI...

CITY           SKY/WX    TMP DP  RH WIND       PRES   REMARKS
ST LOUIS INTL  PTCLDY    60  48  64 CALM      30.13S
SPIRIT OF STL  CLEAR     52  50  93 CALM      30.13R
ST CHARLES     CLEAR     56  54  93 NW3       30.12S

$$
MOZ072>076-082>087-097>100-106>115-220600-
...SOUTH CENTRAL AND SOUTHEAST MISSOURI...

CITY           SKY/WX    TMP DP  RH WIND       PRES   REMARKS
CAPE GIRARDEAU CLOUDY    60  49  66 N7        30.13S
FARMINGTON     CLOUDY    52  49  89 CALM      30.16F
POPLAR BLUFF   CLOUDY    58  51  78 N6        30.14S
WEST PLAINS    CLOUDY    54  50  86 CALM      30.18R

$$



USA.gov is the U.S. government's official web portal to all federal, state and local government web resources and services.